| time (UTC) | temp C | wind direction | speed KPH | gust KPH | rain 1hr cm | rain 24hr cm | rain mn cm | humidity % | barometer mb |
| 20260902060719 | 19 | 196 | 8.0 | 19.3 | 0.00 | 0.00 | 0.00 | 50 | 1007.5 |
| 20260902060213 | 19 | 151 | 9.7 | 22.5 | 0.00 | 0.00 | 0.00 | 50 | 1007.5 |
| 20260902055707 | 19 | 196 | 11.3 | 24.1 | 0.00 | 0.00 | 0.00 | 50 | 1007.5 |
| 20260902055200 | 19 | 153 | 6.4 | 24.1 | 0.00 | 0.00 | 0.00 | 50 | 1007.5 |
| 20260902054657 | 20 | 179 | 8.0 | 19.3 | 0.00 | 0.00 | 0.00 | 50 | 1007.5 |
| 20260902054148 | 20 | 174 | 8.0 | 19.3 | 0.00 | 0.00 | 0.00 | 50 | 1007.5 |
| 20260902053908 | 20 | 243 | 6.4 | 19.3 | 0.00 | 0.00 | 0.00 | 50 | 1007.5 |
| 20260902053136 | 20 | 193 | 6.4 | 17.7 | 0.00 | 0.00 | 0.00 | 50 | 1007.5 |
| 20260902052632 | 20 | 185 | 8.0 | 17.7 | 0.00 | 0.00 | 0.00 | 49 | 1007.4 |
| 20260902052125 | 20 | 195 | 6.4 | 17.7 | 0.00 | 0.00 | 0.00 | 48 | 1007.4 |
| 20260902051618 | 20 | 212 | 6.4 | 11.3 | 0.00 | 0.00 | 0.00 | 48 | 1007.3 |
| 20260902051112 | 20 | 128 | 6.4 | 16.1 | 0.00 | 0.00 | 0.00 | 48 | 1007.2 |
| 20260902050606 | 20 | 198 | 8.0 | 16.1 | 0.00 | 0.00 | 0.00 | 47 | 1007.2 |
| 20260902050319 | 20 | 199 | 8.0 | 20.9 | 0.00 | 0.00 | 0.00 | 48 | 1007.1 |
| 20260902045555 | 20 | 177 | 8.0 | 20.9 | 0.00 | 0.00 | 0.00 | 47 | 1007.0 |
| 20260902045049 | 20 | 199 | 8.0 | 22.5 | 0.00 | 0.00 | 0.00 | 48 | 1006.9 |
| 20260902044543 | 20 | 166 | 9.7 | 22.5 | 0.00 | 0.00 | 0.00 | 48 | 1006.8 |
| 20260902044037 | 20 | 147 | 8.0 | 19.3 | 0.00 | 0.00 | 0.00 | 48 | 1006.6 |
| 20260902043531 | 20 | 168 | 6.4 | 14.5 | 0.00 | 0.00 | 0.00 | 48 | 1006.3 |
| 20260902043025 | 20 | 181 | 6.4 | 14.5 | 0.00 | 0.00 | 0.00 | 49 | 1006.2 |
| 20260902042740 | 20 | 168 | 4.8 | 11.3 | 0.00 | 0.00 | 0.00 | 51 | 1006.1 |
| 20260902042011 | 20 | 176 | 4.8 | 11.3 | 0.00 | 0.00 | 0.00 | 53 | 1005.8 |
| 20260902041950 | 20 | 172 | 3.2 | 6.4 | 0.00 | 0.00 | 0.00 | 55 | 1005.8 |
| 20260902041003 | 20 | 174 | 3.2 | 6.4 | 0.00 | 0.00 | 0.00 | 55 | 1005.7 |
| 20260902040918 | 20 | 181 | 0.0 | 11.3 | 0.00 | 0.00 | 0.00 | 53 | 1005.5 |
| 20260902040539 | 20 | 168 | 1.6 | 4.8 | 0.00 | 0.00 | 0.00 | 54 | 1005.6 |
| 20260902035437 | 20 | 180 | 1.6 | 11.3 | 0.00 | 0.00 | 0.00 | 53 | 1005.5 |
| 20260902034932 | 20 | 251 | 3.2 | 16.1 | 0.00 | 0.00 | 0.00 | 53 | 1005.4 |
| 20260902034432 | 21 | 230 | 1.6 | 16.1 | 0.00 | 0.00 | 0.00 | 53 | 1005.5 |
| 20260902033931 | 21 | 97 | 0.0 | 0.0 | 0.00 | 0.00 | 0.00 | 52 | 1004.9 |
| 20260902033431 | 21 | 150 | 0.0 | 0.0 | 0.00 | 0.00 | 0.00 | 53 | 1004.6 |
| 20260902033134 | 21 | 55 | 0.0 | 0.0 | 0.00 | 0.00 | 0.00 | 52 | 1004.6 |
| 20260902033018 | 21 | 55 | 0.0 | 0.0 | 0.00 | 0.00 | 0.00 | 53 | 1004.6 |
| 20260902031927 | 21 | 56 | 0.0 | 3.2 | 0.00 | 0.00 | 0.00 | 50 | 1004.6 |
| 20260902031427 | 21 | 70 | 1.6 | 4.8 | 0.00 | 0.00 | 0.00 | 50 | 1004.5 |
| 20260902031411 | 21 | 87 | 3.2 | 4.8 | 0.00 | 0.00 | 0.00 | 51 | 1004.4 |
| 20260902030429 | 22 | 82 | 3.2 | 6.4 | 0.00 | 0.00 | 0.00 | 51 | 1004.3 |
| 20260902030402 | 22 | 77 | 3.2 | 6.4 | 0.00 | 0.00 | 0.00 | 51 | 1004.3 |
| 20260902025427 | 22 | 82 | 3.2 | 4.8 | 0.00 | 0.00 | 0.00 | 51 | 1004.2 |
| 20260902024922 | 22 | 85 | 1.6 | 4.8 | 0.00 | 0.00 | 0.00 | 51 | 1004.2 |
| 20260902024421 | 22 | 84 | 1.6 | 4.8 | 0.00 | 0.00 | 0.00 | 52 | 1004.2 |
| 20260902024142 | 23 | 65 | 0.0 | 4.8 | 0.00 | 0.00 | 0.00 | 53 | 1004.4 |
| 20260902023646 | 23 | 78 | 0.0 | 3.2 | 0.00 | 0.00 | 0.00 | 53 | 1004.2 |
| 20260902022921 | 23 | 90 | 0.0 | 4.8 | 0.00 | 0.00 | 0.00 | 53 | 1004.1 |
| 20260902022420 | 23 | 80 | 0.0 | 4.8 | 0.00 | 0.00 | 0.00 | 54 | 1004.2 |
| 20260902021921 | 24 | 109 | 0.0 | 0.0 | 0.00 | 0.00 | 0.00 | 53 | 1004.1 |
| 20260902021420 | 24 | 109 | 0.0 | 0.0 | 0.00 | 0.00 | 0.00 | 53 | 1004.1 |
| 20260902020921 | 25 | 109 | 0.0 | 0.0 | 0.00 | 0.00 | 0.00 | 53 | 1004.1 |
| 20260902020418 | 25 | 109 | 0.0 | 0.0 | 0.00 | 0.00 | 0.00 | 52 | 1004.1 |
| 20260902015916 | 25 | 109 | 0.0 | 0.0 | 0.00 | 0.00 | 0.00 | 50 | 1004.2 |
| 20260902015635 | 26 | 109 | 0.0 | 0.0 | 0.00 | 0.00 | 0.00 | 49 | 1004.3 |
| 20260902014917 | 26 | 109 | 0.0 | 0.0 | 0.00 | 0.00 | 0.00 | 49 | 1004.3 |
| 20260902014417 | 26 | 109 | 0.0 | 0.0 | 0.00 | 0.00 | 0.00 | 48 | 1004.3 |
| 20260902013916 | 26 | 109 | 0.0 | 0.0 | 0.00 | 0.00 | 0.00 | 46 | 1004.3 |
| 20260902013416 | 26 | 109 | 0.0 | 0.0 | 0.00 | 0.00 | 0.00 | 48 | 1004.3 |
| 20260902012916 | 26 | 109 | 0.0 | 0.0 | 0.00 | 0.00 | 0.00 | 47 | 1004.2 |
| 20260902012418 | 26 | 109 | 0.0 | 0.0 | 0.00 | 0.00 | 0.00 | 48 | 1004.3 |
| 20260902011914 | 26 | 208 | 0.0 | 0.0 | 0.00 | 0.00 | 0.00 | 47 | 1004.4 |
| 20260902011412 | 26 | 208 | 0.0 | 0.0 | 0.00 | 0.00 | 0.00 | 48 | 1004.3 |
| 20260902011145 | 26 | 208 | 0.0 | 0.0 | 0.00 | 0.00 | 0.00 | 44 | 1004.4 |
| 20260902010412 | 27 | 208 | 0.0 | 0.0 | 0.00 | 0.00 | 0.00 | 43 | 1004.4 |
| 20260902005912 | 27 | 230 | 0.0 | 0.0 | 0.00 | 0.00 | 0.00 | 42 | 1004.4 |
| 20260902005412 | 27 | 230 | 1.6 | 3.2 | 0.00 | 0.00 | 0.00 | 41 | 1004.4 |
| 20260902004912 | 27 | 230 | 1.6 | 3.2 | 0.00 | 0.00 | 0.00 | 40 | 1004.5 |
| 20260902004412 | 27 | 205 | 0.0 | 3.2 | 0.00 | 0.00 | 0.00 | 43 | 1004.4 |
| 20260902004357 | 26 | 196 | 0.0 | 1.6 | 0.00 | 0.00 | 0.00 | 43 | 1004.3 |
| 20260902003412 | 27 | 109 | 0.0 | 1.6 | 0.00 | 0.00 | 0.00 | 42 | 1004.3 |
| 20260902002913 | 27 | 110 | 0.0 | 4.8 | 0.00 | 0.00 | 0.00 | 42 | 1004.4 |
| 20260902002412 | 27 | 110 | 1.6 | 6.4 | 0.00 | 0.00 | 0.00 | 37 | 1004.4 |
| 20260902001911 | 27 | 85 | 1.6 | 6.4 | 0.00 | 0.00 | 0.00 | 37 | 1004.3 |
| 20260902001412 | 28 | 172 | 1.6 | 3.2 | 0.00 | 0.00 | 0.00 | 40 | 1004.2 |
| 20260902000912 | 28 | 101 | 0.0 | 3.2 | 0.00 | 0.00 | 0.00 | 36 | 1004.2 |
| 20260902000408 | 27 | 232 | 1.6 | 4.8 | 0.00 | 0.00 | 0.00 | 39 | 1004.3 |
| 20260901235907 | 27 | 178 | 1.6 | 6.4 | 0.00 | 0.00 | 0.00 | 40 | 1004.2 |
| 20260901235404 | 27 | 197 | 1.6 | 6.4 | 0.00 | 0.00 | 0.00 | 40 | 1004.3 |
| 20260901234901 | 27 | 268 | 1.6 | 11.3 | 0.00 | 0.00 | 0.00 | 42 | 1004.3 |
| 20260901234404 | 27 | 284 | 3.2 | 11.3 | 0.00 | 0.00 | 0.00 | 44 | 1004.4 |
| 20260901233904 | 27 | 199 | 3.2 | 9.7 | 0.00 | 0.00 | 0.00 | 42 | 1004.3 |
| 20260901233402 | 27 | 284 | 3.2 | 9.7 | 0.00 | 0.00 | 0.00 | 39 | 1004.3 |
| 20260901232902 | 27 | 193 | 1.6 | 4.8 | 0.00 | 0.00 | 0.00 | 43 | 1004.3 |
| 20260901232634 | 27 | 157 | 1.6 | 4.8 | 0.00 | 0.00 | 0.00 | 40 | 1004.4 |
| 20260901231857 | 27 | 331 | 3.2 | 9.7 | 0.00 | 0.00 | 0.00 | 40 | 1004.5 |
| 20260901231351 | 27 | 279 | 3.2 | 9.7 | 0.00 | 0.00 | 0.00 | 38 | 1004.6 |
| 20260901230844 | 27 | 309 | 1.6 | 6.4 | 0.00 | 0.00 | 0.00 | 41 | 1004.6 |
| 20260901230338 | 28 | 307 | 1.6 | 4.8 | 0.00 | 0.00 | 0.00 | 38 | 1004.6 |
| 20260901225832 | 28 | 82 | 1.6 | 4.8 | 0.00 | 0.00 | 0.00 | 39 | 1004.6 |
| 20260901225327 | 27 | 330 | 1.6 | 4.8 | 0.00 | 0.00 | 0.00 | 42 | 1004.7 |
| 20260901224821 | 27 | 62 | 3.2 | 6.4 | 0.00 | 0.00 | 0.00 | 41 | 1004.8 |
| 20260901224314 | 27 | 37 | 3.2 | 6.4 | 0.00 | 0.00 | 0.00 | 44 | 1004.9 |
| 20260901223815 | 27 | 22 | 3.2 | 11.3 | 0.00 | 0.00 | 0.00 | 40 | 1005.0 |
| 20260901223312 | 27 | 68 | 3.2 | 11.3 | 0.00 | 0.00 | 0.00 | 42 | 1004.9 |
| 20260901222812 | 26 | 58 | 1.6 | 4.8 | 0.00 | 0.00 | 0.00 | 41 | 1005.0 |
| 20260901222311 | 26 | 18 | 1.6 | 4.8 | 0.00 | 0.00 | 0.00 | 43 | 1004.9 |
| 20260901221812 | 26 | 60 | 3.2 | 6.4 | 0.00 | 0.00 | 0.00 | 41 | 1005.0 |
| 20260901221535 | 26 | 43 | 3.2 | 6.4 | 0.00 | 0.00 | 0.00 | 41 | 1005.0 |
| 20260901221036 | 26 | 19 | 3.2 | 6.4 | 0.00 | 0.00 | 0.00 | 41 | 1005.0 |
| 20260901220313 | 26 | 48 | 1.6 | 6.4 | 0.00 | 0.00 | 0.00 | 40 | 1005.3 |
| 20260901215811 | 26 | 15 | 1.6 | 6.4 | 0.00 | 0.00 | 0.00 | 44 | 1005.3 |
| 20260901215310 | 26 | 23 | 3.2 | 11.3 | 0.00 | 0.00 | 0.00 | 44 | 1005.4 |
| 20260901214810 | 27 | 28 | 4.8 | 11.3 | 0.00 | 0.00 | 0.00 | 40 | 1005.4 |
| 20260901214309 | 26 | 85 | 4.8 | 9.7 | 0.00 | 0.00 | 0.00 | 41 | 1005.5 |
| 20260901213809 | 26 | 29 | 3.2 | 9.7 | 0.00 | 0.00 | 0.00 | 41 | 1005.4 |
| 20260901213310 | 26 | 38 | 3.2 | 8.0 | 0.00 | 0.00 | 0.00 | 44 | 1005.5 |
| 20260901212809 | 26 | 43 | 1.6 | 4.8 | 0.00 | 0.00 | 0.00 | 44 | 1005.4 |
| 20260901212534 | 26 | 64 | 1.6 | 4.8 | 0.00 | 0.00 | 0.00 | 41 | 1005.7 |
| 20260901211809 | 26 | 43 | 1.6 | 4.8 | 0.00 | 0.00 | 0.00 | 44 | 1005.6 |
| 20260901211522 | 26 | 2 | 1.6 | 4.8 | 0.00 | 0.00 | 0.00 | 44 | 1005.7 |
| 20260901210756 | 26 | 60 | 1.6 | 4.8 | 0.00 | 0.00 | 0.00 | 50 | 1005.8 |
| 20260901210250 | 25 | 180 | 1.6 | 6.4 | 0.00 | 0.00 | 0.00 | 42 | 1006.0 |
| 20260901205745 | 25 | 239 | 1.6 | 6.4 | 0.00 | 0.00 | 0.00 | 45 | 1005.9 |
| 20260901205239 | 24 | 316 | 3.2 | 12.9 | 0.00 | 0.00 | 0.00 | 45 | 1006.1 |
| 20260901204733 | 24 | 214 | 6.4 | 12.9 | 0.00 | 0.00 | 0.00 | 44 | 1006.2 |
| 20260901204227 | 25 | 278 | 6.4 | 12.9 | 0.00 | 0.00 | 0.00 | 45 | 1006.2 |
| 20260901203721 | 25 | 265 | 6.4 | 12.9 | 0.00 | 0.00 | 0.00 | 46 | 1006.3 |
| 20260901203215 | 25 | 304 | 6.4 | 14.5 | 0.00 | 0.00 | 0.00 | 47 | 1006.1 |
| 20260901202709 | 25 | 246 | 4.8 | 17.7 | 0.00 | 0.00 | 0.00 | 44 | 1006.0 |
| 20260901202202 | 24 | 309 | 4.8 | 11.3 | 0.00 | 0.00 | 0.00 | 48 | 1006.1 |
| 20260901201656 | 24 | 299 | 3.2 | 9.7 | 0.00 | 0.00 | 0.00 | 48 | 1006.1 |
| 20260901201150 | 24 | 232 | 3.2 | 4.8 | 0.00 | 0.00 | 0.00 | 47 | 1005.9 |
| 20260901200645 | 23 | 223 | 1.6 | 4.8 | 0.00 | 0.00 | 0.00 | 47 | 1005.8 |
| 20260901200407 | 23 | 195 | 0.0 | 3.2 | 0.00 | 0.00 | 0.00 | 46 | 1005.6 |
| 20260901195632 | 23 | 54 | 1.6 | 4.8 | 0.00 | 0.00 | 0.00 | 47 | 1005.3 |
| 20260901195127 | 23 | 49 | 1.6 | 4.8 | 0.00 | 0.00 | 0.00 | 47 | 1005.4 |
| 20260901194627 | 23 | 17 | 1.6 | 4.8 | 0.00 | 0.00 | 0.00 | 47 | 1005.4 |
| 20260901194127 | 23 | 64 | 3.2 | 8.0 | 0.00 | 0.00 | 0.00 | 45 | 1005.5 |
| 20260901193628 | 23 | 323 | 3.2 | 8.0 | 0.00 | 0.00 | 0.00 | 45 | 1005.9 |
| 20260901193124 | 23 | 313 | 3.2 | 8.0 | 0.00 | 0.00 | 0.00 | 44 | 1006.1 |
| 20260901192623 | 23 | 304 | 3.2 | 8.0 | 0.00 | 0.00 | 0.00 | 44 | 1006.3 |
| 20260901192123 | 23 | 289 | 3.2 | 6.4 | 0.00 | 0.00 | 0.00 | 46 | 1006.4 |
| 20260901191623 | 23 | 240 | 4.8 | 11.3 | 0.00 | 0.00 | 0.00 | 46 | 1006.6 |
| 20260901191343 | 23 | 273 | 4.8 | 11.3 | 0.00 | 0.00 | 0.00 | 47 | 1006.7 |
| 20260901190624 | 23 | 179 | 4.8 | 9.7 | 0.00 | 0.00 | 0.00 | 46 | 1006.8 |
| 20260901190124 | 22 | 212 | 4.8 | 11.3 | 0.00 | 0.00 | 0.00 | 47 | 1006.8 |
| 20260901185625 | 22 | 235 | 4.8 | 16.1 | 0.00 | 0.00 | 0.00 | 49 | 1006.9 |
| 20260901185123 | 22 | 195 | 4.8 | 16.1 | 0.00 | 0.00 | 0.00 | 48 | 1006.9 |
| 20260901184623 | 22 | 237 | 4.8 | 11.3 | 0.00 | 0.00 | 0.00 | 49 | 1007.0 |
| 20260901184348 | 22 | 237 | 1.6 | 11.3 | 0.00 | 0.00 | 0.00 | 51 | 1007.2 |
| 20260901183624 | 22 | 173 | 0.0 | 4.8 | 0.00 | 0.00 | 0.00 | 50 | 1007.2 |
| 20260901183124 | 22 | 293 | 0.0 | 0.0 | 0.00 | 0.00 | 0.00 | 49 | 1007.3 |
| 20260901182624 | 22 | 272 | 0.0 | 0.0 | 0.00 | 0.00 | 0.00 | 49 | 1007.0 |
| 20260901182117 | 22 | 214 | 1.6 | 6.4 | 0.00 | 0.00 | 0.00 | 48 | 1007.1 |
| 20260901181616 | 22 | 122 | 1.6 | 6.4 | 0.00 | 0.00 | 0.00 | 49 | 1007.2 |
| 20260901181341 | 22 | 92 | 1.6 | 4.8 | 0.00 | 0.00 | 0.00 | 48 | 1007.1 |
| 20260901180614 | 22 | 193 | 1.6 | 8.0 | 0.00 | 0.00 | 0.00 | 46 | 1007.1 |
| 20260901180113 | 22 | 212 | 1.6 | 8.0 | 0.00 | 0.00 | 0.00 | 46 | 1007.2 |
| 20260901175614 | 22 | 203 | 1.6 | 6.4 | 0.00 | 0.00 | 0.00 | 46 | 1007.5 |
| 20260901175114 | 22 | 208 | 1.6 | 6.4 | 0.00 | 0.00 | 0.00 | 46 | 1007.4 |
| 20260901174613 | 22 | 199 | 1.6 | 4.8 | 0.00 | 0.00 | 0.00 | 45 | 1007.3 |
| 20260901174115 | 22 | 214 | 3.2 | 9.7 | 0.00 | 0.00 | 0.00 | 45 | 1007.2 |
| 20260901173613 | 22 | 196 | 3.2 | 9.7 | 0.00 | 0.00 | 0.00 | 43 | 1007.2 |
| 20260901173115 | 22 | 251 | 3.2 | 8.0 | 0.00 | 0.00 | 0.00 | 43 | 1007.3 |
| 20260901172611 | 22 | 246 | 4.8 | 11.3 | 0.00 | 0.00 | 0.00 | 42 | 1007.1 |
| 20260901172112 | 23 | 283 | 4.8 | 11.3 | 0.00 | 0.00 | 0.00 | 42 | 1006.9 |
| 20260901171611 | 23 | 253 | 4.8 | 16.1 | 0.00 | 0.00 | 0.00 | 43 | 1006.9 |
| 20260901171111 | 23 | 303 | 4.8 | 16.1 | 0.00 | 0.00 | 0.00 | 43 | 1006.7 |
| 20260901170833 | 23 | 283 | 3.2 | 8.0 | 0.00 | 0.00 | 0.00 | 44 | 1006.7 |
| 20260901170112 | 22 | 293 | 4.8 | 11.3 | 0.00 | 0.00 | 0.00 | 44 | 1006.2 |
| 20260901165612 | 22 | 257 | 4.8 | 11.3 | 0.00 | 0.00 | 0.00 | 43 | 1006.4 |
| 20260901165113 | 22 | 284 | 4.8 | 8.0 | 0.00 | 0.00 | 0.00 | 45 | 1006.4 |
| 20260901164612 | 22 | 291 | 4.8 | 8.0 | 0.00 | 0.00 | 0.00 | 46 | 1006.4 |
| 20260901164107 | 21 | 280 | 4.8 | 6.4 | 0.00 | 0.00 | 0.00 | 46 | 1006.3 |
| 20260901163836 | 21 | 272 | 3.2 | 6.4 | 0.00 | 0.00 | 0.00 | 47 | 1006.4 |
| 20260901163109 | 21 | 289 | 1.6 | 4.8 | 0.00 | 0.00 | 0.00 | 48 | 1006.4 |
| 20260901162607 | 20 | 316 | 1.6 | 4.8 | 0.00 | 0.00 | 0.00 | 49 | 1006.4 |
| 20260901162107 | 20 | 265 | 1.6 | 4.8 | 0.00 | 0.00 | 0.00 | 52 | 1006.6 |
| 20260901161607 | 19 | 315 | 1.6 | 4.8 | 0.00 | 0.00 | 0.00 | 54 | 1006.6 |
| 20260901161108 | 18 | 284 | 0.0 | 4.8 | 0.00 | 0.00 | 0.00 | 56 | 1006.7 |
| 20260901160607 | 18 | 305 | 0.0 | 0.0 | 0.00 | 0.00 | 0.00 | 62 | 1006.7 |
| 20260901160336 | 17 | 303 | 0.0 | 0.0 | 0.00 | 0.00 | 0.00 | 65 | 1006.8 |
| 20260901155827 | 17 | 287 | 0.0 | 0.0 | 0.00 | 0.00 | 0.00 | 67 | 1006.8 |
| 20260901155335 | 16 | 254 | 0.0 | 0.0 | 0.00 | 0.00 | 0.00 | 71 | 1006.9 |
| 20260901154604 | 16 | 254 | 0.0 | 0.0 | 0.00 | 0.00 | 0.00 | 71 | 1006.9 |
| 20260901154104 | 16 | 254 | 0.0 | 0.0 | 0.00 | 0.00 | 0.00 | 71 | 1007.1 |
| 20260901153827 | 15 | 254 | 0.0 | 0.0 | 0.00 | 0.00 | 0.00 | 73 | 1007.0 |
| 20260901153320 | 15 | 254 | 0.0 | 0.0 | 0.00 | 0.00 | 0.00 | 75 | 1006.9 |
| 20260901152603 | 15 | 65 | 0.0 | 0.0 | 0.00 | 0.00 | 0.00 | 74 | 1006.8 |
| 20260901152104 | 15 | 65 | 0.0 | 0.0 | 0.00 | 0.00 | 0.00 | 74 | 1006.6 |
| 20260901151605 | 15 | 65 | 0.0 | 0.0 | 0.00 | 0.00 | 0.00 | 74 | 1006.4 |
| 20260901151058 | 14 | 65 | 0.0 | 0.0 | 0.00 | 0.00 | 0.00 | 73 | 1006.4 |
| 20260901150815 | 14 | 65 | 0.0 | 0.0 | 0.00 | 0.00 | 0.00 | 74 | 1006.4 |
| 20260901150050 | 14 | 95 | 0.0 | 0.0 | 0.00 | 0.00 | 0.00 | 75 | 1006.4 |
| 20260901145551 | 13 | 63 | 0.0 | 0.0 | 0.00 | 0.00 | 0.00 | 75 | 1006.3 |
| 20260901145049 | 13 | 63 | 0.0 | 0.0 | 0.00 | 0.00 | 0.00 | 75 | 1006.2 |
| 20260901144549 | 13 | 63 | 0.0 | 0.0 | 0.00 | 0.00 | 0.00 | 74 | 1006.2 |
| 20260901144049 | 13 | 63 | 0.0 | 0.0 | 0.00 | 0.00 | 0.00 | 73 | 1006.1 |
| 20260901143549 | 13 | 79 | 0.0 | 3.2 | 0.00 | 0.00 | 0.00 | 73 | 1006.0 |
| 20260901143050 | 13 | 79 | 1.6 | 3.2 | 0.00 | 0.00 | 0.00 | 73 | 1006.0 |
| 20260901142813 | 13 | 85 | 1.6 | 3.2 | 0.00 | 0.00 | 0.00 | 73 | 1006.1 |
| 20260901142050 | 13 | 85 | 1.6 | 3.2 | 0.00 | 0.00 | 0.00 | 72 | 1006.0 |
| 20260901141547 | 13 | 77 | 0.0 | 3.2 | 0.00 | 0.00 | 0.00 | 72 | 1005.9 |
| 20260901141048 | 13 | 77 | 0.0 | 0.0 | 0.00 | 0.00 | 0.00 | 71 | 1005.9 |
| 20260901140545 | 13 | 77 | 0.0 | 3.2 | 0.00 | 0.00 | 0.00 | 71 | 1005.9 |
| 20260901140043 | 13 | 77 | 0.0 | 3.2 | 0.00 | 0.00 | 0.00 | 71 | 1005.8 |
| 20260901135542 | 13 | 76 | 0.0 | 0.0 | 0.00 | 0.00 | 0.00 | 71 | 1005.7 |
| 20260901135040 | 13 | 72 | 0.0 | 0.0 | 0.00 | 0.00 | 0.00 | 71 | 1005.7 |
| 20260901134757 | 13 | 74 | 0.0 | 0.0 | 0.00 | 0.00 | 0.00 | 71 | 1005.7 |
| 20260901134034 | 13 | 72 | 0.0 | 0.0 | 0.00 | 0.00 | 0.00 | 71 | 1005.7 |
| 20260901133534 | 13 | 72 | 0.0 | 0.0 | 0.00 | 0.00 | 0.00 | 70 | 1005.5 |
| 20260901133028 | 13 | 72 | 0.0 | 0.0 | 0.00 | 0.00 | 0.00 | 70 | 1005.6 |
| 20260901132756 | 13 | 72 | 0.0 | 0.0 | 0.00 | 0.00 | 0.00 | 69 | 1005.5 |
| 20260901132244 | 13 | 72 | 0.0 | 0.0 | 0.00 | 0.00 | 0.00 | 69 | 1005.6 |
| 20260901131511 | 13 | 72 | 0.0 | 0.0 | 0.00 | 0.00 | 0.00 | 68 | 1005.6 |
| 20260901131006 | 13 | 72 | 0.0 | 0.0 | 0.00 | 0.00 | 0.00 | 68 | 1005.5 |
| 20260901130720 | 13 | 72 | 0.0 | 0.0 | 0.00 | 0.00 | 0.00 | 67 | 1005.4 |
| 20260901130432 | 13 | 72 | 0.0 | 0.0 | 0.00 | 0.00 | 0.00 | 68 | 1005.4 |
| 20260901125447 | 13 | 49 | 0.0 | 0.0 | 0.00 | 0.00 | 0.00 | 66 | 1005.4 |
| 20260901124940 | 13 | 49 | 0.0 | 0.0 | 0.00 | 0.00 | 0.00 | 66 | 1005.4 |
| 20260901124434 | 13 | 49 | 0.0 | 0.0 | 0.00 | 0.00 | 0.00 | 67 | 1005.5 |
| 20260901124155 | 13 | 49 | 0.0 | 0.0 | 0.00 | 0.00 | 0.00 | 66 | 1005.5 |
| 20260901123423 | 13 | 49 | 0.0 | 0.0 | 0.00 | 0.00 | 0.00 | 66 | 1005.4 |
| 20260901122917 | 13 | 49 | 0.0 | 0.0 | 0.00 | 0.00 | 0.00 | 66 | 1005.4 |
| 20260901122410 | 13 | 49 | 0.0 | 0.0 | 0.00 | 0.00 | 0.00 | 65 | 1005.4 |
| 20260901121904 | 13 | 49 | 0.0 | 0.0 | 0.00 | 0.00 | 0.00 | 64 | 1005.4 |
| 20260901121358 | 13 | 49 | 0.0 | 0.0 | 0.00 | 0.00 | 0.00 | 64 | 1005.4 |
| 20260901120853 | 13 | 49 | 0.0 | 0.0 | 0.00 | 0.00 | 0.00 | 64 | 1005.5 |
| 20260901120347 | 13 | 49 | 0.0 | 0.0 | 0.00 | 0.00 | 0.00 | 63 | 1005.5 |
| 20260901120106 | 13 | 49 | 0.0 | 0.0 | 0.00 | 0.00 | 0.00 | 62 | 1005.3 |
| 20260901115334 | 13 | 49 | 0.0 | 0.0 | 0.00 | 0.00 | 0.00 | 61 | 1005.4 |
| 20260901114829 | 13 | 49 | 0.0 | 0.0 | 0.00 | 0.00 | 0.00 | 62 | 1005.4 |
| 20260901114322 | 13 | 49 | 0.0 | 0.0 | 0.00 | 0.00 | 0.00 | 61 | 1005.5 |
| 20260901113817 | 13 | 49 | 0.0 | 0.0 | 0.00 | 0.00 | 0.00 | 60 | 1005.6 |
| 20260901113539 | 13 | 49 | 0.0 | 0.0 | 0.00 | 0.00 | 0.00 | 60 | 1005.6 |
| 20260901112805 | 13 | 49 | 0.0 | 3.2 | 0.00 | 0.00 | 0.00 | 60 | 1005.6 |
| 20260901112259 | 13 | 49 | 1.6 | 3.2 | 0.00 | 0.00 | 0.00 | 60 | 1005.6 |
| 20260901111753 | 13 | 51 | 1.6 | 3.2 | 0.00 | 0.00 | 0.00 | 61 | 1005.6 |
| 20260901111250 | 13 | 68 | 1.6 | 4.8 | 0.00 | 0.00 | 0.00 | 61 | 1005.7 |
| 20260901110740 | 13 | 66 | 1.6 | 4.8 | 0.00 | 0.00 | 0.00 | 61 | 1005.7 |
| 20260901110235 | 14 | 84 | 0.0 | 4.8 | 0.00 | 0.00 | 0.00 | 61 | 1005.6 |
| 20260901105728 | 14 | 71 | 0.0 | 0.0 | 0.00 | 0.00 | 0.00 | 60 | 1005.7 |
| 20260901105222 | 14 | 73 | 0.0 | 0.0 | 0.00 | 0.00 | 0.00 | 60 | 1005.8 |
| 20260901104716 | 14 | 64 | 0.0 | 0.0 | 0.00 | 0.00 | 0.00 | 60 | 1005.8 |
| 20260901104211 | 14 | 66 | 0.0 | 3.2 | 0.00 | 0.00 | 0.00 | 60 | 1005.7 |
| 20260901103705 | 14 | 96 | 0.0 | 3.2 | 0.00 | 0.00 | 0.00 | 60 | 1005.7 |
| 20260901103200 | 14 | 97 | 1.6 | 3.2 | 0.00 | 0.00 | 0.00 | 60 | 1005.8 |
| 20260901103152 | 14 | 98 | 1.6 | 3.2 | 0.00 | 0.00 | 0.00 | 60 | 1005.8 |
| 20260901102148 | 14 | 100 | 1.6 | 3.2 | 0.00 | 0.00 | 0.00 | 59 | 1005.8 |
| 20260901101648 | 14 | 74 | 1.6 | 3.2 | 0.00 | 0.00 | 0.00 | 58 | 1005.8 |
| 20260901101406 | 14 | 52 | 1.6 | 4.8 | 0.00 | 0.00 | 0.00 | 58 | 1005.9 |
| 20260901100646 | 14 | 58 | 1.6 | 4.8 | 0.00 | 0.00 | 0.00 | 58 | 1005.9 |
| 20260901100147 | 14 | 69 | 0.0 | 1.6 | 0.00 | 0.00 | 0.00 | 57 | 1005.9 |
| 20260901095648 | 14 | 83 | 0.0 | 3.2 | 0.00 | 0.00 | 0.00 | 57 | 1006.0 |
| 20260901095146 | 14 | 97 | 0.0 | 3.2 | 0.00 | 0.00 | 0.00 | 57 | 1005.9 |
| 20260901094647 | 14 | 129 | 0.0 | 6.4 | 0.00 | 0.00 | 0.00 | 56 | 1006.0 |
| 20260901094409 | 14 | 122 | 1.6 | 6.4 | 0.00 | 0.00 | 0.00 | 55 | 1006.0 |
| 20260901093644 | 14 | 177 | 3.2 | 16.1 | 0.00 | 0.00 | 0.00 | 55 | 1006.0 |
| 20260901093146 | 14 | 160 | 3.2 | 16.1 | 0.00 | 0.00 | 0.00 | 56 | 1006.0 |
| 20260901092646 | 14 | 205 | 0.0 | 9.7 | 0.00 | 0.00 | 0.00 | 57 | 1006.1 |
| 20260901092146 | 14 | 224 | 0.0 | 0.0 | 0.00 | 0.00 | 0.00 | 58 | 1006.1 |
| 20260901091645 | 14 | 188 | 0.0 | 0.0 | 0.00 | 0.00 | 0.00 | 58 | 1006.0 |
| 20260901091142 | 14 | 180 | 0.0 | 3.2 | 0.00 | 0.00 | 0.00 | 58 | 1006.0 |
| 20260901090644 | 14 | 90 | 1.6 | 3.2 | 0.00 | 0.00 | 0.00 | 58 | 1006.0 |
| 20260901090139 | 15 | 87 | 1.6 | 3.2 | 0.00 | 0.00 | 0.00 | 58 | 1006.0 |
| 20260901085639 | 15 | 128 | 1.6 | 6.4 | 0.00 | 0.00 | 0.00 | 57 | 1006.0 |
| 20260901085138 | 15 | 102 | 0.0 | 6.4 | 0.00 | 0.00 | 0.00 | 58 | 1005.9 |
| 20260901084638 | 15 | 122 | 0.0 | 0.0 | 0.00 | 0.00 | 0.00 | 57 | 1005.9 |
| 20260901084408 | 15 | 147 | 0.0 | 3.2 | 0.00 | 0.00 | 0.00 | 57 | 1005.9 |
| 20260901083859 | 15 | 124 | 0.0 | 3.2 | 0.00 | 0.00 | 0.00 | 56 | 1005.9 |
| 20260901083404 | 15 | 146 | 0.0 | 0.0 | 0.00 | 0.00 | 0.00 | 56 | 1005.9 |
| 20260901082638 | 15 | 146 | 0.0 | 6.4 | 0.00 | 0.00 | 0.00 | 56 | 1006.0 |
| 20260901082139 | 15 | 146 | 1.6 | 6.4 | 0.00 | 0.00 | 0.00 | 56 | 1005.9 |
| 20260901081856 | 15 | 178 | 1.6 | 3.2 | 0.00 | 0.00 | 0.00 | 54 | 1006.0 |
| 20260901081401 | 16 | 160 | 1.6 | 4.8 | 0.00 | 0.00 | 0.00 | 55 | 1005.9 |
| 20260901080636 | 16 | 87 | 1.6 | 4.8 | 0.00 | 0.00 | 0.00 | 56 | 1005.9 |
| 20260901080136 | 16 | 147 | 3.2 | 6.4 | 0.00 | 0.00 | 0.00 | 56 | 1006.0 |
| 20260901075635 | 16 | 107 | 1.6 | 6.4 | 0.00 | 0.00 | 0.00 | 56 | 1005.9 |
| 20260901075135 | 16 | 153 | 1.6 | 4.8 | 0.00 | 0.00 | 0.00 | 55 | 1005.8 |
| 20260901074636 | 16 | 167 | 0.0 | 0.0 | 0.00 | 0.00 | 0.00 | 55 | 1005.9 |
| 20260901074136 | 16 | 135 | 0.0 | 0.0 | 0.00 | 0.00 | 0.00 | 56 | 1005.9 |
| 20260901073637 | 16 | 118 | 0.0 | 3.2 | 0.00 | 0.00 | 0.00 | 56 | 1005.8 |
| 20260901073134 | 16 | 160 | 0.0 | 3.2 | 0.00 | 0.00 | 0.00 | 56 | 1005.8 |
| 20260901072855 | 16 | 160 | 1.6 | 4.8 | 0.00 | 0.00 | 0.00 | 56 | 1005.8 |
| 20260901072134 | 16 | 178 | 3.2 | 8.0 | 0.00 | 0.00 | 0.00 | 56 | 1005.8 |
| 20260901071636 | 16 | 182 | 3.2 | 8.0 | 0.00 | 0.00 | 0.00 | 58 | 1005.8 |
| 20260901071401 | 16 | 150 | 3.2 | 11.3 | 0.00 | 0.00 | 0.00 | 59 | 1005.8 |
| 20260901070900 | 16 | 187 | 3.2 | 11.3 | 0.00 | 0.00 | 0.00 | 60 | 1005.8 |
| 20260901070134 | 16 | 164 | 1.6 | 11.3 | 0.00 | 0.00 | 0.00 | 60 | 1005.7 |
| 20260901065630 | 16 | 157 | 1.6 | 3.2 | 0.00 | 0.00 | 0.00 | 60 | 1005.7 |
| 20260901065131 | 16 | 171 | 1.6 | 4.8 | 0.00 | 0.00 | 0.00 | 59 | 1005.8 |
| 20260901064630 | 16 | 143 | 3.2 | 8.0 | 0.00 | 0.00 | 0.00 | 59 | 1005.7 |
| 20260901064352 | 16 | 176 | 3.2 | 8.0 | 0.00 | 0.00 | 0.00 | 58 | 1005.7 |
| 20260901063624 | 16 | 160 | 1.6 | 8.0 | 0.00 | 0.00 | 0.00 | 58 | 1005.7 |
| 20260901063124 | 16 | 176 | 1.6 | 4.8 | 0.00 | 0.00 | 0.00 | 57 | 1005.7 |
| 20260901062624 | 16 | 158 | 1.6 | 4.8 | 0.00 | 0.00 | 0.00 | 56 | 1005.6 |
| 20260901062126 | 16 | 125 | 1.6 | 3.2 | 0.00 | 0.00 | 0.00 | 56 | 1005.7 |
| 20260901061624 | 16 | 149 | 1.6 | 6.4 | 0.00 | 0.00 | 0.00 | 56 | 1005.7 |
| 20260901061125 | 16 | 114 | 3.2 | 6.4 | 0.00 | 0.00 | 0.00 | 56 | 1005.6 |